CAPE
2838 3026 3031 3495 3495 2706 2270 2295 2257 1925 1478 1363 1525 1531 1546 1673 1356 1206 1610 1515 1428 1450 1961 2184 2447 2357 2209 2318 2044 2298 2860 2772 2507 3178 3435 3784 3647 3622 3084 3726 4014 3729 3907 3540 2924 3176 3798 3747 3602 3532 3817 3576 4037 3426 2832 3072 2956 2933 3025 3632 3182 3882 3993 4266 4361 4789 4760 4632 4338 3262 3092 3279 2737 2852 2983 3851 3379 4028 3429 3390 3849 4074 4185 4111 3958
2584 2450 3494 3130 3198 2178 1602 1542 1744 2109 1353 929 1227 1430 1438 1435 1857 1685 1231 1680 1666 950 1763 1556 1998 2244 1930 2282 2185 2194 3024 3242 2162 2361 3183 3520 3261 2521 2678 4010 3998 3816 3727 3855 3354 3122 3451 3972 3750 3434 3934 3522 3239 2566 2346 1467 1990 2088 2882 2754 3359 3764 4240 4260 4612 4098 4122 4381 4551 4672 3411 3009 3004 4847 4311 3909 3499 3700 3593 3655 3735 3548 4111 4556 3902
2066 2591 2779 2923 2671 2560 1985 1851 1618 2028 1350 1133 780 849 1119 1147 1500 1574 884 952 1490 1495 1772 1506 2058 2486 2212 2414 2767 2302 3219 2743 2416 2519 2727 3284 3154 2524 2001 2854 3235 3432 3414 3634 3368 3203 3138 3311 3362 3282 2486 2746 2994 2514 1878 2170 1944 2290 2062 2542 3356 2950 4704 3977 3930 4220 4206 4351 4314 3590 3349 3896 3496 3504 3648 3698 3795 3976 3622 3666 3599 2904 2949 3467 4728
1908 1843 1967 2037 2239 2038 2016 2077 1784 2221 1123 836 849 737 748 835 1279 1217 828 819 982 1518 1700 1728 2334 2656 2504 2784 3022 2516 3134 2537 2414 2306 2984 3097 2936 3135 3190 3349 2876 2876 3032 3034 2865 3023 2969 3221 2789 2631 2687 2844 3058 2803 3256 2670 2613 3164 2692 2955 2656 2379 2566 2298 3680 3920 4318 4222 4443 4130 3969 4204 4173 3843 3733 3632 3530 3844 4040 3289 3306 3526 4250 3589 3222
1745 1814 1625 1854 2178 3289 2008 2620 2655 2732 2609 1325 619 574 609 696 900 991 932 821 846 1134 1635 2106 2607 2858 2058 2337 2689 2717 2535 2633 2863 2293 2081 2110 2661 2490 2570 2733 2974 2994 2824 2955 3129 3320 3106 2842 2878 2871 2996 2969 2840 2708 2491 2714 2420 2092 2316 2573 2683 2820 2920 3584 3931 3623 3728 3958 4282 4645 5038 4730 4263 3973 3732 3471 4333 4464 4421 4267 3920 3204 4299 3867 3501
1648 1346 1300 1254 1487 1710 1907 2001 1726 2126 2915 2383 1622 526 546 390 514 903 970 985 963 890 1485 1425 1759 2961 2430 2234 2394 2672 2666 2593 2871 2705 2070 1942 2174 2281 2645 2854 2502 2635 2608 2717 2868 2796 2483 2764 2797 2997 2905 2807 2642 2647 2910 2973 3051 2762 2511 2804 3229 3914 4699 4488 4292 4393 4286 4177 4195 3936 3922 3682 3685 4379 4529 4377 3440 3264 4254 4266 3796 3528 4233 5124 3814
1615 1487 1402 1416 1542 1729 2062 1733 1488 1778 2508 2081 1804 1135 519 362 277 440 707 882 804 558 868 1480 1597 1941 2655 2427 2172 2472 2704 2584 2902 3080 2702 2347 2243 2255 2113 2404 2176 2287 2327 2281 2099 2264 2412 2278 2516 2718 2541 2624 2471 2570 2996 2999 2579 2488 3296 4204 3558 3376 3128 3284 3770 4558 4493 4475 4365 4493 4470 4384 3981 3675 4974 4857 4994 4943 4357 4167 4116 4439 4522 4990 4940
845 1496 1360 1470 1228 1712 1382 1160 1376 1217 2105 2812 2629 1812 1202 860 476 492 811 802 619 496 241 1045 1630 1406 1924 2033 2234 2558 2890 2692 3057 3380 2966 2552 2364 2280 2204 2031 1750 1840 1895 2196 1977 1613 1726 1674 1203 1598 1986 2330 2346 2409 2797 3010 3157 2830 3117 3222 3229 3537 3463 3632 4037 4016 3916 3473 3943 3980 4139 4380 3491 2852 2310 1926 1889 2476 3018 3038 3912 4994 5671 5434 3905
808 889 1138 1009 1152 1611 1588 1447 2062 2260 2250 2636 2925 2540 2443 2566 2292 1463 1214 750 530 480 380 175 785 1144 1183 1558 1862 1978 1949 2146 2209 2648 2864 3041 2731 2199 1868 1785 1780 1771 1851 1540 1674 1571 1113 923 942 796 1573 2595 2199 2248 1868 2077 2162 2851 3185 3304 3895 4214 4336 4120 3945 3874 3743 3582 3252 3191 3127 3172 3464 3293 2985 2937 2893 2876 4174 4225 3633 4239 3857 3380 4590
734 910 910 1286 1258 1018 1103 861 1240 1490 1676 2041 2306 2514 2506 2245 1766 1701 1955 1111 1165 1090 826 687 305 943 1269 1555 1703 1460 1461 1586 1887 1571 1985 2445 2676 2098 1775 1622 1640 1658 2001 1862 1379 1300 819 573 420 1085 2304 3671 2971 1972 1687 1785 2906 2395 3097 3902 4283 4178 4336 4307 4258 4293 4340 4210 3752 3449 3241 3180 3011 2930 3186 3158 3274 3592 3656 3988 3331 3714 3663 4532 4536
698 710 700 888 1476 1207 1051 980 1221 1640 2093 2081 1790 2596 2421 2309 2415 1934 1943 2562 2088 1912 1602 776 362 179 589 963 1248 1022 1139 1060 997 1410 1577 1918 2478 2724 2472 2412 2299 2328 2222 2352 1964 1276 864 857 690 1116 1940 2848 4383 2480 1710 1555 1466 1504 1745 2179 2782 3187 3701 4184 4153 4240 4280 4055 3854 3567 3028 2801 2739 2419 2385 2054 1486 1119 1502 2076 3597 4208 3464 3047 2882
419 498 583 646 724 752 839 937 1417 1415 1262 1459 1406 1765 2136 1978 2013 1638 1334 1599 1549 1440 1623 1651 1533 1207 419 346 622 873 988 822 133 449 1264 1620 1907 2433 2418 2143 1702 1868 2077 1859 1984 1680 1179 743 532 333 463 1002 1593 3084 2017 1472 1320 1288 1160 1084 1007 1049 1291 2333 3266 3901 4019 3716 3637 3422 2975 2698 2830 2944 2742 1924 2102 2472 3461 2932 2642 2388 2460 2804 3033
489 521 519 503 603 734 1161 930 867 1025 1182 1843 1792 1820 1932 1944 1902 1884 2050 1842 1738 2262 1802 1189 1265 1796 1456 1471 909 395 731 499 8 0 0 1192 1555 1752 1966 2011 1693 1247 1182 1697 1708 1728 1619 1226 919 457 118 967 1886 1447 2052 1528 908 793 866 850 819 721 306 160 458 1645 2236 3074 3061 2832 2874 3026 3056 3100 2750 2309 3528 3741 3530 3139 2637 2766 2660 2280 2248
644 626 588 547 576 693 692 930 961 1017 1010 1290 1379 1664 1519 1364 2050 2367 2263 2331 2296 2157 1890 2118 1891 1605 1534 1828 2110 1910 1340 419 0 0 0 344 1108 1367 1798 1834 1833 1453 1182 1252 1340 1502 1605 1612 1491 1193 938 785 874 1839 2499 2643 1823 1239 993 1082 1416 1476 1080 753 65 0 310 746 1047 1183 1431 2158 2496 2677 3196 3477 3337 3223 3332 3392 3275 2520 2227 2402 2834
825 755 676 636 616 592 617 712 810 1043 1205 1131 1028 1156 1254 1309 1724 2104 2181 2528 2552 2358 2126 2184 2261 2132 1760 1535 1650 1843 1516 1314 1040 160 0 0 137 920 1428 1766 1542 1260 1117 1189 1563 1411 1672 1712 1478 1374 1474 1666 1712 1341 1319 2482 3898 3477 2568 1803 1562 1621 1677 1655 1278 886 582 510 532 636 817 1127 1864 2492 2752 3097 3088 3308 3507 3629 3705 3538 3802 3669 3289
608 691 769 720 670 594 591 642 643 726 899 948 892 1150 1340 1341 1526 1954 2563 2720 2585 2377 2273 2083 1928 1681 1638 1571 1718 2005 1966 1481 1341 1211 1004 526 0 23 1022 1645 1639 1338 1093 922 907 1159 1279 1307 1631 2097 2138 2155 2093 1828 1628 1698 1566 2077 3252 3735 3741 3448 2990 2699 2192 1711 1261 1002 697 616 391 369 460 1044 1668 1862 2243 3098 3316 3297 3265 3036 2768 2782 2893
415 430 488 589 669 658 612 527 558 702 702 749 855 866 1346 1534 1574 2057 1996 2260 2012 2151 2341 2085 1917 1857 1580 1562 1551 1747 2108 2058 1673 1593 1394 1132 950 781 918 1530 1893 1763 1426 1316 1239 1250 1258 1174 1252 944 955 1619 2235 2215 1852 1467 1501 1359 1307 1518 1642 1436 2026 2904 2863 2668 2352 2012 1627 1415 1201 1011 845 748 686 1052 1591 2061 2404 2653 3043 2982 2683 3130 3217
389 442 435 384 371 386 554 539 600 698 629 574 573 633 1233 1537 1688 1984 1914 1942 2091 2026 2142 2275 2207 2084 1773 1561 1432 1673 1897 2280 2124 1852 1618 1489 1242 1099 1004 1462 1722 1969 2189 2035 1909 1907 1874 1920 2097 1399 1122 988 804 936 1564 1685 1706 1834 1603 1330 1204 1245 1483 1701 1416 1734 2481 2463 2241 1873 1546 1331 1099 1003 1015 956 915 1065 1338 1556 1625 1518 1312 1047 907
132 136 174 166 91 90 194 221 311 539 665 641 551 579 906 1011 1080 1361 1500 1249 1553 2013 1988 1907 1664 1674 1835 1876 1641 1753 1837 2005 2138 1990 1769 1725 1631 1375 1138 1422 1625 1704 1780 2003 2060 2002 2017 2107 2158 2019 1741 1529 1081 906 960 1090 1658 2049 2045 1859 1475 1211 1079 1136 1479 1590 1431 1549 1896 2093 1996 1737 1526 1399 1334 1243 1154 1072 1164 1661 1829 1777 1648 1524 1239
0 0 0 0 0 0 0 125 210 250 366 570 572 522 590 713 747 780 961 1099 1176 1238 1336 1388 1586 1665 1655 1634 1651 1739 1543 1900 2388 2408 2132 1844 1814 1815 1689 1860 1800 1743 1796 1874 1982 2070 2117 2195 2196 1728 1580 1403 1228 1125 1110 1176 1333 2023 2263 2045 1762 1681 1606 1592 1715 1609 1542 1437 1866 2210 1542 1475 1530 1520 1462 1422 1398 1357 1240 1410 1680 1850 1775 1665 1557
0 0 0 0 0 0 0 0 0 0 14 152 225 172 334 674 759 1077 930 991 1027 1089 1094 1068 1272 1422 1552 1697 1836 2052 1843 1608 1314 1444 1723 1855 1816 1686 1577 2109 2065 2110 2209 2070 1994 1866 1901 2252 2266 2347 1993 1776 1545 1356 1159 1050 1073 1512 2115 2137 1921 1853 2195 2445 2233 2653 2812 2489 1993 1778 2932 2556 2286 2168 1936 1994 2153 2203 1906 1624 1672 1920 1844 1670 1448
0 0 0 0 0 0 0 0 0 0 2 10 129 735 611 490 691 716 620 709 731 830 883 883 862 1071 1529 1521 1667 2234 1735 1407 1093 1089 1308 1585 1677 1950 1714 1861 2339 2291 2303 2161 2094 2082 2151 2205 2431 2455 2172 2037 1914 1811 1701 1576 1446 1306 1488 1469 1677 1762 1721 2052 2273 2226 2147 1848 1740 1805 2083 2476 3249 3009 2764 2672 2605 2576 2576 2505 2148 1974 1924 1626 1572
0 0 0 0 0 0 0 0 0 0 0 14 22 17 160 235 272 962 1207 1125 944 916 1070 1245 1075 903 1152 1615 1828 1838 1690 1885 1714 1421 1300 1497 1838 1848 1886 1717 1502 1697 1592 2142 2200 2162 2282 2350 2468 2378 2050 1776 1814 1798 1763 1694 1624 1592 1545 1467 1427 1436 1456 1473 1596 1776 1785 1686 1554 1466 1451 1793 2156 2294 2490 2662 2545 2501 2512 2734 2768 2597 2476 2146 1652
0 0 0 0 0 0 0 0 0 0 0 0 0 2 16 47 231 609 849 955 1295 1431 1550 1482 1537 1383 1167 1026 1276 2659 1515 1506 1632 1497 1182 1259 1422 1665 1787 1874 1812 1704 1735 1815 2051 2112 2205 2462 2681 2133 2008 1877 1812 1735 1662 1626 1592 1583 1558 1535 1510 1484 1472 1503 1542 1551 1440 1222 1196 1191 1212 1293 1424 1608 1842 1987 1890 1765 1948 1926 2330 2938 2642 2391 2118
0 0 0 0 0 0 0 0 0 0 0 0 0 0 0 0 29 247 511 385 683 1331 1428 1292 1229 1203 1274 1348 1588 3336 2084 1605 1474 1453 1521 1272 1274 1598 1742 1800 1801 1868 1900 1850 1795 1940 2008 1825 1708 1586 1725 1812 1828 1816 1756 1694 1666 1613 1572 1518 1419 1421 1439 1486 1562 1593 1565 1457 1234 1013 1074 1083 1141 1211 1426 1797 2137 2649 2943 2990 2671 2784 3124 2640 2395
0 0 0 0 0 0 0 0 0 0 0 0 0 0 0 16 91 184 224 346 516 641 1010 1235 1256 1272 1312 1716 2549 3158 2962 2230 1914 1724 1632 1573 1770 2087 2483 2582 2335 2029 1935 1996 1925 1951 2022 2054 1967 1758 1563 1484 1485 1481 1487 1477 1468 1466 1417 1428 1414 1384 1378 1416 1476 1543 1608 1611 1529 1280 1030 1012 1060 1114 1252 1601 2050 2293 2640 2864 2812 2358 2174 2508 3098
0 0 1 0 0 0 0 0 0 0 0 0 0 0 1 1 0 36 84 145 330 618 603 859 1027 1040 1889 1875 2058 2426 2548 2137 1748 1682 1556 1953 2151 1812 2043 2322 2411 2473 2340 2191 2077 2054 2034 2141 2158 2048 1825 1699 1628 1480 1381 1383 1401 1394 1398 1365 1350 1360 1339 1333 1347 1419 1520 1633 1674 1652 1514 1208 1205 1314 1549 1738 1697 1853 2072 2101 2412 2708 2925 2648 2210
0 0 0 0 0 0 0 0 0 0 0 0 0 0 0 0 0 0 34 91 422 617 371 269 584 794 936 1244 1412 1664 1736 1834 1817 1601 1632 1648 2405 2529 2201 2240 2176 2193 2174 2142 2166 2134 1909 1658 1607 1713 2110 2120 2042 1899 1626 1452 1393 1396 1362 1338 1304 1276 1248 1248 1262 1280 1411 1528 1666 1804 1816 1722 1396 1360 1650 1946 2191 2235 2313 2319 2313 2420 2357 2374 2699
0 0 0 0 0 0 0 0 0 0 0 0 0 0 0 0 0 0 0 30 34 0 0 0 11 14 8 91 423 321 281 341 1578 1421 1744 1696 1710 1884 1917 1864 1813 1854 1942 2067 2127 2107 1982 2056 2148 2185 2222 2208 2177 2089 1941 1806 1675 1511 1391 1329 1306 1292 1285 1284 1260 1268 1310 1406 1569 1750 1880 1933 1876 1616 1130 1519 1841 2126 2644 2836 2712 2532 2588 2805 2717
0 0 0 0 0 0 0 0 0 0 0 0 0 0 0 0 0 0 0 0 0 0 0 0 0 0 0 0 1 33 17 47 146 314 605 1272 1705 1684 1635 1661 1691 1747 1838 1982 2051 1985 1868 1901 1980 2014 1813 1554 1380 1292 1320 1377 1452 1424 1326 1258 1219 1197 1166 1171 1176 1220 1278 1365 1547 1678 1806 1899 1937 1855 1586 1445 1621 1866 2238 2560 3072 3110 2932 3009 2906
0 0 0 0 0 0 0 0 0 0 0 0 0 0 0 0 0 0 0 0 0 0 0 0 0 0 0 0 0 0 0 0 0 0 175 341 672 1184 1645 1700 1707 1745 1815 1906 1980 1973 1881 1757 1790 1824 1816 1626 1438 1505 1613 1656 1622 1504 1712 1662 1472 1485 1498 1506 1532 1573 1697 1761 1743 1696 1633 1572 1389 1571 1730 1719 1660 1809 2088 2320 2500 3308 3310 3024 2969
0 0 0 0 0 0 0 0 1 2 4 3 1 0 1 0 0 0 0 0 0 0 0 0 0 0 0 0 0 0 0 0 0 0 0 13 121 313 596 861 1243 1575 1717 1680 1705 1807 1803 1825 1848 1959 1988 1861 1649 1721 1857 1848 1779 1857 2004 1967 2141 2141 2028 2008 1919 1862 1906 1883 1837 1766 1710 1665 1559 1509 1489 1617 1748 1967 2176 2272 2526 2547 2689 3030 3070
0 0 0 0 0 1 1 4 3 0 1 2 1 0 0 0 0 0 2 0 0 0 0 0 0 0 0 0 0 0 0 0 0 0 0 0 0 0 13 286 468 729 880 934 1219 1565 1716 1748 1782 1894 1997 1947 1653 2001 2273 2344 2059 1800 1957 1898 1768 1579 1843 2168 1958 1975 1962 1966 1929 1842 1775 1705 1670 1631 1586 1613 1612 1575 1748 1873 2087 2412 2488 2540 2556
0 0 0 0 0 0 0 0 0 2 4 6 4 1 0 0 0 0 0 0 0 0 0 0 0 0 0 0 0 0 0 0 0 0 0 0 0 0 0 0 118 222 80 322 552 766 1006 1351 1710 1750 1774 1828 1617 1814 2083 2294 2407 2404 2153 1870 1752 1920 1922 2006 2257 2302 2094 2026 1972 1890 1771 1764 1720 1725 1768 1911 1836 1723 1652 1632 1691 1818 1917 2036 2216
0 0 0 2 4 2 1 0 0 1 1 6 8 4 2 4 2 0 0 0 0 0 0 111 55 0 0 0 0 0 0 0 0 0 0 0 0 0 0 0 0 0 0 0 0 360 626 696 1016 1342 1485 1608 1734 1671 1759 2067 2238 2388 2457 2190 2316 2236 2164 1970 2081 2229 2356 2414 2031 1868 1803 1712 1767 1973 2092 1934 1731 1598 1647 1622 1580 1562 1633 1710 1723
2 1 1 0 2 3 0 1 2 3 4 7 14 18 23 21 13 10 6 4 3 0 0 0 0 0 0 0 0 0 0 0 0 0 0 0 0 0 0 0 0 0 2 16 2 116 734 992 998 745 832 1027 1246 1418 1656 1757 1851 1973 2276 2564 2504 2574 2552 2561 2266 2212 2363 2767 2793 2264 1723 1520 1619 1883 1926 1803 1657 1615 1567 1554 1576 1550 1520 1570 1796
0 1 2 4 3 3 5 6 6 8 8 7 7 14 16 17 21 15 9 3 2 0 0 0 0 0 3 0 0 0 0 0 0 0 79 244 339 331 288 323 325 363 373 378 336 231 93 561 980 1254 1329 1236 1155 1188 1344 1534 1678 1798 1766 2049 2494 2722 2750 2755 2772 2450 2696 2374 2130 1980 1737 1521 1723 1958 1976 1969 1904 1773 1626 1567 1493 1493 1538 1608 1643
16 14 13 13 16 12 11 14 9 14 17 10 16 17 7 1 0 9 20 19 12 11 7 1 0 0 0 3 23 34 10 0 56 182 282 419 451 419 448 570 535 452 547 603 622 668 655 631 760 904 1078 1303 1488 1420 1426 1639 1767 1865 1947 2102 2440 2746 2679 2555 2483 2424 1990 1714 1639 1618 1493 1404 1580 1716 1784 1873 1888 1786 1631 1603 1589 1549 1508 1415 1432
32 22 16 10 8 10 8 5 5 6 7 5 2 3 8 15 22 28 25 22 19 11 8 5 5 9 23 88 207 718 651 370 428 783 767 670 782 909 866 890 930 989 1033 1006 978 1003 1228 1415 1439 1352 1450 1557 1599 1745 1989 2129 2257 2337 2366 2370 2366 2597 2725 2852 2545 2314 2086 2119 1894 1577 1621 1711 1581 1608 1603 1521 1548 1606 1578 1574 1594 1608 1626 1559 1361
25 26 24 30 30 22 19 17 15 13 8 6 4 2 0 0 0 1 7 24 29 26 22 26 19 13 15 18 33 172 185 124 125 120 164 178 215 271 368 314 405 632 822 1001 1083 1134 1383 1695 1968 2192 2191 1975 1951 1913 2062 2152 2503 2570 2660 2664 2685 2730 2850 3232 2680 2632 2494 2299 2110 2128 2107 2082 1902 1750 1640 1496 1462 1488 1569 1640 1683 1637 1509 1461 1435
22 24 30 25 20 22 25 24 20 22 27 28 22 18 10 5 0 0 0 0 0 7 15 18 18 17 14 16 32 58 65 35 28 47 76 61 57 131 262 412 792 797 854 936 1288 1603 1776 1952 2273 2358 2345 2691 2830 2702 2627 2536 2670 2782 2992 2999 2842 2752 3332 2723 2723 2624 2412 2393 2326 2378 2358 2040 2001 2000 1988 1895 1671 1556 1630 1684 1704 1735 1758 1712 1644
22 23 22 25 31 30 32 31 30 34 29 33 37 34 40 31 20 14 6 2 0 0 0 0 4 19 45 49 39 30 30 21 8 5 3 5 7 31 62 104 268 851 1337 1457 1456 1223 1098 1187 1538 1876 2091 2239 2339 2424 2438 2358 2287 2357 2434 2545 3100 3406 3392 2862 2687 2642 2472 2259 1965 2052 2226 2345 2362 2083 1971 2071 2113 1966 1704 1746 1916 2029 2030 1897 1692
32 34 34 40 30 24 23 22 30 30 35 34 28 30 38 39 36 36 32 26 24 27 32 31 36 52 62 43 31 21 22 32 24 22 14 5 7 11 40 61 53 0 0 361 531 659 852 1156 1397 1517 1705 1836 1968 2080 2111 2166 2249 2344 2407 2395 2366 2335 2426 2538 2494 2436 2355 2248 2265 2425 2428 2294 2202 2112 2130 2101 2069 2038 1876 1741 1813 1872 1868 1677 1634
29 32 36 40 32 20 13 15 20 35 33 34 37 42 46 48 43 39 28 25 28 32 31 38 35 38 46 47 48 54 78 50 35 21 22 38 13 7 11 39 0 0 0 0 173 340 436 586 715 908 1146 1526 1733 1825 1862 1856 1871 1970 2140 2249 2280 2318 2324 2287 2271 2208 2147 2156 2196 2265 2251 2220 2185 2217 2180 2175 2094 1938 1859 1948 1944 1855 1660 1448 1308
13 20 28 30 24 21 10 8 12 20 33 26 26 22 37 42 49 76 80 63 95 89 71 54 42 32 38 48 72 84 51 29 12 0 0 0 0 0 0 0 0 0 0 0 0 251 322 362 418 499 580 794 1306 1545 1572 1579 1632 1698 1795 1869 1995 2114 2240 2284 2236 2132 2071 2068 2118 2130 2152 2194 2263 2178 2094 1971 1977 2013 2002 1920 1767 1696 1601 1498 1589
22 22 24 23 23 23 24 18 26 26 4 0 8 32 23 14 24 39 65 88 76 62 45 39 44 53 46 57 52 47 45 27 0 0 0 0 0 0 0 0 0 0 0 0 0 51 0 210 292 326 339 353 406 859 1216 1391 1529 1634 1769 1896 1922 1891 1918 2028 2189 2271 2305 2299 2271 2248 2276 2302 2181 1668 1547 1657 1775 1836 1797 1561 1583 1629 1596 1536 1322
37 29 24 20 16 18 21 18 17 10 12 23 18 17 7 38 30 72 106 79 84 78 71 46 38 34 42 27 17 24 21 6 0 0 0 0 0 0 0 0 0 0 0 0 0 0 0 0 5 6 168 204 238 270 392 671 984 1286 1511 1727 1873 1880 1885 1883 1960 1974 2025 1999 2058 2110 2264 2249 2250 2180 1552 1676 1464 1212 1212 1168 1026 1192 1237 1346 1334
18 17 16 25 21 22 20 28 29 30 31 30 36 42 31 48 47 38 41 97 96 78 98 97 77 33 6 18 17 8 0 0 0 0 0 0 0 0 0 0 0 0 0 0 0 0 0 0 0 0 0 0 162 255 316 444 631 860 1039 1156 1393 1627 1855 1851 1763 1674 1736 1972 2126 2133 2201 2155 1849 1621 840 1191 1206 984 884 916 888 854 997 1044 1035
14 13 13 16 22 26 32 40 40 33 34 46 53 46 19 51 57 60 131 31 119 138 68 40 21 0 0 0 0 0 0 0 0 0 0 0 0 0 0 0 0 1 0 0 0 0 0 0 0 0 1 21 10 220 302 359 505 722 875 950 976 997 983 1212 1104 867 1012 1609 1878 1991 2088 2108 2100 2120 1897 1966 1798 1560 1372 1045 849 877 808 879 920
17 24 29 30 43 52 61 52 52 50 55 64 61 50 25 57 93 83 115 138 100 32 1 0 1 0 0 0 0 0 0 0 0 0 0 0 0 0 0 0 0 0 0 0 0 0 0 0 0 0 0 72 139 238 297 348 344 355 435 520 674 800 820 764 829 859 863 888 962 1088 1129 1199 1196 1115 1096 1061 955 762 588 480 452 498 520 523 522
33 35 41 48 58 50 57 47 43 26 35 42 43 33 24 15 21 44 26 19 7 0 0 0 0 0 0 0 0 0 0 0 0 0 0 0 0 0 0 0 0 2 2 0 0 0 1 2 0 0 0 85 174 256 353 386 452 468 478 516 554 609 751 888 957 978 992 972 945 878 773 672 554 476 524 535 504 462 421 361 346 370 398 416 429
Wind_Speed
18 18 15 13 15 21 20 13 7 8 6 7 6 6 7 7 8 8 11 9 9 10 9 8 7 6 5 6 5 6 6 6 5 6 5 4 4 4 3 1 3 3 4 6 6 6 5 5 5 5 6 7 7 7 8 7 7 6 6 8 7 6 6 5 5 6 7 7 8 7 8 11 10 11 9 9 11 12 11 12 11 10 14 17 21
20 15 12 17 18 18 17 20 14 8 5 6 6 7 7 7 9 9 10 11 10 10 11 8 7 8 5 7 6 7 8 7 5 6 6 5 3 3 4 4 3 4 4 3 5 6 5 4 4 5 4 4 6 5 5 7 7 6 7 6 7 6 8 8 6 7 8 9 8 10 11 9 9 13 14 13 11 12 12 13 12 10 15 19 18
14 16 16 16 15 14 15 14 13 9 5 6 6 7 8 7 8 9 9 10 11 10 11 9 9 9 7 8 8 7 9 8 7 7 7 6 4 3 2 2 3 3 4 5 5 5 6 6 5 4 4 3 3 4 6 7 9 10 10 10 10 9 11 10 10 8 7 8 10 9 11 14 14 13 13 11 11 12 13 14 14 16 14 16 20
19 17 16 14 12 13 12 11 9 8 6 7 7 7 8 8 9 7 7 9 11 11 11 10 11 11 8 9 9 8 8 9 8 7 7 7 5 4 6 5 3 2 3 4 3 5 5 5 5 5 4 5 5 5 6 6 6 6 7 7 8 8 8 9 9 9 9 8 9 9 9 9 11 10 10 10 10 11 13 14 15 15 16 15 17
19 17 18 16 13 13 9 12 13 9 9 10 7 8 7 9 11 9 7 7 10 13 12 12 12 13 11 9 9 9 7 8 9 7 7 7 7 5 5 5 6 5 4 5 5 6 5 5 4 4 5 6 7 7 6 6 6 7 7 7 6 7 8 8 7 8 7 7 8 9 9 9 9 9 9 8 11 13 14 15 16 16 15 19 17
17 18 21 20 16 15 12 9 7 6 13 13 9 9 9 8 11 12 8 8 9 12 14 12 12 14 13 12 10 9 8 8 9 7 6 6 7 6 6 6 5 7 7 6 7 7 7 6 6 6 6 5 4 5 6 6 7 6 6 8 10 10 10 8 8 8 8 8 9 8 9 7 8 10 11 11 10 11 13 13 15 15 16 18 19
22 21 20 20 19 13 10 9 8 8 13 13 11 11 11 9 9 12 11 9 8 8 13 14 13 14 15 13 11 10 9 7 8 8 7 7 8 7 6 7 6 7 6 6 6 6 5 6 6 5 5 5 4 5 6 6 7 7 8 9 9 9 8 8 8 8 8 7 6 6 5 5 6 6 9 9 9 10 9 10 11 13 13 15 17
25 23 20 17 15 13 13 14 17 15 13 18 17 14 13 14 13 14 15 12 9 9 8 13 15 14 14 13 12 11 10 8 8 8 8 7 8 9 9 8 6 6 6 5 5 5 5 4 4 4 3 4 4 6 6 6 7 6 6 6 6 7 7 7 7 6 6 6 5 5 5 6 8 7 5 4 4 3 6 8 8 10 13 15 14
23 23 21 20 14 14 18 19 20 24 24 26 24 20 18 19 20 19 17 13 11 10 8 8 14 14 13 13 12 10 8 8 8 8 8 8 7 8 9 8 7 8 7 5 6 6 7 7 5 3 4 4 4 3 2 3 6 7 6 6 7 7 7 6 5 5 5 5 4 5 4 3 5 5 3 3 2 2 7 9 9 12 14 12 14
16 18 19 19 25 21 18 24 27 26 31 32 33 30 28 27 26 28 22 14 16 14 11 11 11 13 13 13 12 10 9 8 10 9 9 9 8 7 8 9 9 9 9 8 7 7 5 5 6 3 2 4 7 7 5 3 5 6 8 9 8 8 7 7 7 7 6 5 5 5 4 5 5 6 5 5 4 5 5 7 7 9 11 13 14
17 20 20 23 26 29 29 28 27 26 24 26 25 24 25 25 25 26 24 23 18 16 15 12 10 11 12 12 11 10 9 9 10 13 12 10 9 8 7 9 10 9 9 10 9 9 8 8 7 6 6 6 7 7 6 5 5 4 3 4 7 9 9 8 8 8 6 5 6 6 5 5 5 5 5 3 3 3 3 7 9 12 12 11 10
25 25 25 25 28 27 25 24 26 29 33 31 26 26 26 26 27 30 29 25 26 25 22 17 14 12 12 12 11 10 9 8 10 15 15 14 11 9 7 6 7 9 9 8 10 10 9 8 8 6 7 7 10 9 7 6 6 6 6 5 4 4 7 9 8 7 8 6 6 7 7 6 6 7 6 5 4 5 7 8 9 9 9 10 12
30 31 30 30 31 27 24 25 28 31 31 24 18 20 24 21 20 23 23 22 24 22 20 20 20 19 15 13 13 12 11 9 nan nan nan 17 15 11 9 8 6 7 8 9 9 10 11 10 8 8 8 6 7 9 11 9 8 8 8 7 6 6 6 6 8 9 8 7 7 7 9 8 6 7 9 8 9 9 10 9 10 10 11 11 12
35 35 35 34 34 31 28 28 30 28 25 23 21 23 27 25 23 22 24 26 23 20 19 19 17 15 18 18 16 13 13 12 nan nan nan 18 17 15 11 9 8 7 8 8 9 9 10 10 10 9 9 10 12 13 14 12 12 10 9 9 9 6 6 7 nan nan 10 10 8 8 9 11 10 9 10 11 10 10 11 11 13 13 12 13 13
41 40 39 38 38 36 33 32 33 30 27 25 25 26 28 25 21 19 22 24 23 21 21 21 21 22 22 19 18 14 11 11 16 17 nan nan 19 18 15 12 10 9 9 10 12 12 12 10 9 8 10 11 12 11 13 16 17 14 12 10 10 10 11 11 13 14 14 14 13 11 10 11 11 11 12 14 13 13 15 14 15 16 15 14 13
46 44 43 42 40 38 35 34 34 33 30 28 27 25 23 22 23 23 22 22 21 21 20 21 20 19 18 17 16 15 12 10 12 19 16 16 nan nan 18 16 14 12 11 10 11 12 13 13 14 13 13 13 11 10 13 16 17 17 17 15 14 13 13 13 14 15 16 16 16 14 14 13 13 14 15 16 17 18 17 17 17 17 15 14 13
47 46 45 45 42 38 36 34 34 35 33 32 32 27 23 22 22 23 22 20 18 19 19 18 18 17 17 17 15 13 14 13 13 17 19 20 23 22 20 19 18 15 14 14 13 13 12 13 13 13 13 16 15 15 14 17 18 16 16 15 14 12 13 16 19 19 19 20 19 19 18 17 16 17 17 17 20 20 21 20 19 20 19 17 17
48 47 46 45 43 40 39 37 35 35 33 33 34 27 23 23 23 23 21 20 18 17 17 18 18 19 19 19 18 16 16 15 12 15 20 24 26 24 23 21 19 18 18 18 18 18 16 10 12 14 14 15 14 16 18 21 20 17 17 15 14 12 14 16 17 20 20 20 21 21 21 21 19 17 18 19 19 24 25 21 21 22 18 17 16
50 49 48 46 nan nan 44 42 37 35 35 33 33 31 28 25 24 22 21 22 21 20 20 19 19 20 20 20 20 18 19 19 18 18 22 25 26 26 26 25 21 20 20 20 21 21 20 17 13 13 15 15 14 17 20 24 22 19 19 17 14 12 15 18 19 17 20 23 18 18 18 17 19 20 20 19 21 24 24 21 22 23 20 19 19
nan nan nan nan nan nan nan 45 42 40 37 35 34 32 29 28 26 25 24 23 23 22 22 22 20 19 21 22 24 22 21 23 24 23 25 26 26 27 28 26 23 22 22 22 23 23 22 22 20 16 14 13 14 17 21 25 23 22 22 19 15 14 19 21 19 19 18 16 18 21 19 20 22 22 22 22 23 27 23 22 21 22 21 20 21
nan nan nan nan nan nan nan nan nan nan nan 39 35 31 29 30 28 27 26 25 26 25 25 24 22 21 21 23 24 24 26 33 42 53 40 32 25 25 27 27 25 25 25 25 24 22 23 24 24 23 21 19 18 18 20 24 24 24 23 20 19 20 24 22 19 16 20 21 20 19 21 22 22 23 23 23 24 25 25 23 21 21 20 20 20
nan nan nan nan nan nan nan nan nan nan nan nan 41 38 34 31 28 26 25 26 26 24 24 24 24 23 24 24 25 31 49 53 40 30 31 29 25 21 25 22 25 27 27 26 26 25 24 25 26 26 26 24 23 22 21 22 24 25 21 20 18 20 22 22 22 21 20 20 19 20 21 23 25 24 24 25 25 25 25 25 24 22 20 19 20
nan nan nan nan nan nan nan nan nan nan nan nan nan nan 40 38 35 31 28 26 25 25 24 23 23 24 26 27 28 38 40 32 30 20 18 23 25 27 21 20 19 29 27 27 26 25 25 26 27 23 25 27 26 25 25 24 26 25 21 21 21 20 22 23 22 22 22 21 21 22 23 22 22 23 25 25 25 26 25 25 25 25 24 22 21
nan nan nan nan nan nan nan nan nan nan nan nan nan nan nan nan 39 38 35 31 29 28 27 26 25 25 26 28 30 36 29 26 24 19 22 24 26 26 24 18 16 25 29 27 27 28 28 28 34 39 33 28 27 27 28 28 29 26 24 23 23 23 27 25 25 24 23 23 23 23 23 24 23 22 23 25 26 27 26 25 25 25 25 24 22
nan nan nan nan nan nan nan nan nan nan nan nan nan nan nan nan nan 42 41 37 35 33 31 29 26 25 26 26 27 31 28 26 25 30 33 27 25 24 22 20 17 22 30 27 26 28 33 48 43 39 40 36 31 29 29 27 26 27 27 26 26 33 31 29 28 28 27 26 26 25 24 25 25 24 25 25 24 25 27 27 26 26 27 25 22
nan nan nan nan nan nan nan nan nan nan nan nan nan nan nan nan nan 42 42 41 39 36 34 33 31 28 26 26 27 27 28 27 29 31 32 31 30 27 25 25 26 26 22 22 21 24 27 29 31 30 29 34 37 35 34 32 29 26 24 26 32 34 32 32 32 31 29 27 27 26 25 26 25 25 24 25 24 24 25 25 25 24 23 25 25
nan nan nan nan nan nan nan nan nan nan nan nan nan nan nan nan nan nan nan 42 41 39 38 37 36 37 37 35 32 30 28 28 29 31 33 33 33 33 36 34 32 31 30 29 28 28 27 29 30 29 31 31 30 29 29 30 32 33 33 33 32 31 32 33 33 32 29 28 27 26 25 25 25 24 24 25 22 22 25 24 22 22 25 25 21
nan nan nan nan nan nan nan nan nan nan nan nan nan nan nan nan nan nan nan nan 45 45 46 49 46 41 38 36 33 32 30 30 31 31 32 32 34 38 36 36 36 38 35 33 31 29 28 29 28 29 29 27 27 28 27 27 29 32 34 35 34 31 29 29 30 29 28 28 26 25 24 24 22 21 21 20 19 21 24 24 22 21 23 22 20
nan nan nan nan nan nan nan nan nan nan nan nan nan nan nan nan nan nan nan nan nan nan nan nan nan nan nan nan 36 33 31 31 37 42 40 39 38 37 37 34 35 32 34 36 34 30 29 29 29 28 27 26 25 25 25 25 26 27 27 30 32 31 30 30 28 25 25 25 22 21 21 22 19 19 19 16 16 19 23 23 23 22 22 23 20
nan nan nan nan nan nan nan nan nan nan nan nan nan nan nan nan nan nan nan nan nan nan nan nan nan nan nan nan nan nan nan nan 38 37 34 32 34 34 31 29 26 25 24 28 37 33 29 26 25 25 24 24 24 24 23 24 25 26 27 27 28 28 27 26 23 21 22 21 19 19 19 20 19 19 19 16 16 18 21 22 22 24 23 22 20
nan nan nan nan nan nan nan nan nan nan nan nan nan nan nan nan nan nan nan nan nan nan nan nan nan nan nan nan nan nan nan nan nan nan 33 31 32 37 36 32 24 17 18 29 33 30 29 25 21 21 22 21 21 21 22 23 24 25 25 24 23 21 22 22 22 22 21 20 20 20 21 21 20 20 19 18 18 19 20 23 23 24 23 21 20
nan nan nan nan nan nan nan nan nan nan nan nan nan nan nan nan nan nan nan nan nan nan nan nan nan nan nan nan nan nan nan nan nan nan nan nan 32 35 36 34 26 21 23 34 27 26 28 26 23 21 22 20 18 19 20 21 23 23 22 20 20 22 21 19 23 26 25 24 24 25 24 23 22 21 21 20 21 21 21 22 24 24 23 22 21
nan nan nan nan nan nan nan nan nan nan nan nan nan nan nan nan nan nan nan nan nan nan nan nan nan nan nan nan nan nan nan nan nan nan nan nan nan nan nan 29 24 23 35 36 28 25 26 26 24 23 23 20 17 18 21 22 23 23 21 20 20 20 21 23 28 26 26 27 28 27 27 26 25 24 26 26 26 22 21 20 23 25 25 24 22
nan nan nan nan nan nan nan nan nan nan nan nan nan nan nan nan nan nan nan nan nan nan nan nan nan nan nan nan nan nan nan nan nan nan nan nan nan nan nan nan 23 25 nan 32 29 25 25 23 21 22 22 20 18 19 21 23 24 23 21 19 19 21 22 23 25 25 26 26 29 30 32 32 31 29 31 34 28 21 20 22 25 26 24 24 23
nan nan nan nan nan nan nan nan nan nan nan nan nan nan nan nan nan nan nan nan nan nan nan 58 nan nan nan nan nan nan nan nan nan nan nan nan nan nan nan nan nan nan nan nan nan 29 27 26 23 22 22 20 19 18 18 20 23 22 21 20 21 22 23 24 24 24 25 29 31 33 37 40 44 40 33 28 25 23 26 31 34 32 28 26 26
nan nan nan nan nan nan nan nan nan nan nan nan nan nan nan nan nan nan nan nan nan nan nan nan nan nan nan nan nan nan nan nan nan nan nan nan nan nan nan nan nan nan nan nan nan 31 31 28 27 26 26 24 23 21 20 20 21 21 21 22 22 23 25 25 26 26 28 31 36 40 49 53 43 33 29 29 30 30 30 34 35 34 30 29 31
nan nan nan nan nan nan nan nan nan nan nan nan nan nan nan nan nan nan nan nan nan nan nan nan nan nan nan nan nan nan nan nan nan nan nan 51 52 52 44 42 38 37 36 36 35 35 nan 32 30 29 29 27 25 25 24 22 22 23 24 23 25 25 27 28 29 31 33 41 51 60 58 48 41 33 33 34 35 35 34 34 35 34 32 29 30
nan nan nan nan nan nan nan nan nan nan nan nan nan nan nan nan nan nan nan nan nan nan nan nan nan nan nan nan nan nan nan nan nan 59 58 59 59 52 47 44 41 39 38 37 37 36 33 32 32 33 32 31 28 27 27 27 28 29 30 30 30 30 28 29 31 39 56 62 60 58 54 51 42 35 34 37 37 38 38 37 38 37 35 32 32
nan nan nan nan nan nan nan nan nan nan nan nan nan nan nan nan nan nan nan nan nan nan nan nan nan nan nan nan 66 65 61 62 63 59 61 59 58 55 52 49 45 42 39 39 38 38 36 34 33 34 34 34 34 34 33 33 33 32 33 33 33 33 34 36 41 55 50 51 54 52 53 50 45 42 42 42 40 40 40 39 39 38 36 34 34
nan nan nan nan nan nan nan nan nan nan nan nan nan nan nan nan nan nan nan nan nan nan nan nan nan nan nan nan nan 67 66 65 64 64 63 63 61 59 56 52 49 45 42 41 41 41 38 36 35 34 34 35 36 37 37 36 34 33 33 34 34 34 34 39 50 47 50 55 52 50 44 41 41 42 45 45 43 43 42 40 39 37 36 34 33
nan nan nan nan nan nan nan nan nan nan nan nan nan nan nan nan nan nan nan nan nan nan nan nan nan nan nan nan nan nan nan nan nan nan nan nan nan 60 58 55 52 49 46 43 42 43 44 42 41 40 39 39 42 44 45 43 40 37 36 37 38 38 41 49 47 50 54 56 54 46 41 39 41 43 44 44 43 42 39 39 37 36 35 35 33
nan nan nan nan nan nan nan nan nan nan nan nan nan nan nan nan nan nan nan nan nan nan nan nan nan nan nan nan nan nan nan nan nan nan nan nan nan nan nan 57 54 54 56 55 55 53 51 49 47 48 50 49 50 50 51 50 50 48 48 47 46 45 45 46 46 49 55 57 53 46 41 43 43 42 41 41 41 40 37 34 33 32 32 32 33
nan nan nan nan nan nan nan nan nan nan nan nan nan nan nan nan nan nan nan nan nan nan nan nan nan nan nan nan nan nan nan nan nan nan nan nan nan nan nan nan nan nan nan 58 57 56 52 50 49 50 50 51 51 52 52 52 51 50 50 51 50 51 50 48 47 49 51 53 50 45 43 44 45 42 40 40 40 40 37 34 33 32 32 35 39
nan nan nan nan nan nan nan nan nan nan nan nan nan nan nan nan nan nan nan nan nan nan nan nan nan nan nan nan nan nan nan nan nan nan nan nan nan nan nan nan nan nan nan nan 59 58 55 52 50 50 51 52 53 52 51 52 52 51 51 51 50 51 50 51 52 53 53 52 50 46 44 46 47 44 41 42 43 43 40 37 35 35 37 40 39
nan nan nan nan nan nan nan nan nan nan nan nan nan nan nan nan nan nan nan nan nan nan nan nan nan nan nan nan nan nan nan nan nan nan nan nan nan nan nan nan nan nan nan nan nan 60 57 55 52 51 52 53 54 53 52 52 53 53 53 52 50 49 49 50 51 51 51 50 48 47 46 46 47 46 45 45 46 45 43 42 41 42 42 42 39
nan nan nan nan nan nan nan nan nan nan nan nan nan nan nan nan nan nan nan nan nan nan nan nan nan nan nan nan nan nan nan nan nan nan nan nan nan nan nan nan nan nan nan nan nan nan nan 58 56 54 53 53 54 55 54 53 52 52 53 53 51 50 49 48 48 49 49 49 48 48 46 45 44 45 45 45 48 46 43 42 43 41 42 42 38
nan nan nan nan nan nan nan nan nan nan nan nan nan nan nan nan nan nan 69 nan nan nan nan nan nan nan nan nan nan nan nan nan nan nan nan nan nan nan nan nan nan nan nan nan nan nan nan nan nan nan 55 55 55 55 55 54 52 52 52 52 52 50 49 49 48 47 47 48 48 47 46 46 47 46 45 46 48 46 45 44 43 41 45 47 47
nan nan nan nan nan nan nan nan nan nan nan nan nan nan nan nan nan nan nan nan nan nan nan nan nan nan nan nan nan nan nan nan nan nan nan nan nan nan nan nan nan nan nan nan nan nan nan nan nan nan nan nan 57 57 57 57 55 53 52 52 52 52 49 47 47 46 47 48 48 48 50 52 53 53 53 54 56 56 54 55 55 53 53 52 51
nan nan nan nan nan nan nan nan nan nan nan nan nan nan nan nan nan nan 53 nan 61 66 nan nan nan nan nan nan nan nan nan nan nan nan nan nan nan nan nan nan nan nan nan nan nan nan nan nan nan nan nan nan nan 60 60 60 58 56 54 54 52 48 47 46 46 48 48 49 52 56 58 60 60 59 58 58 57 57 56 56 57 56 55 54 53
nan nan nan nan nan nan nan nan nan nan nan nan nan nan nan nan nan nan 47 52 58 nan nan nan nan nan nan nan nan nan nan nan nan nan nan nan nan nan nan nan nan nan nan nan nan nan nan nan nan nan nan nan 63 63 62 62 60 58 57 55 53 55 56 53 53 52 52 56 57 58 59 60 59 58 57 56 56 56 56 55 55 55 54 54 53
nan nan nan nan nan nan nan nan nan nan nan nan nan nan nan nan nan nan nan nan nan nan nan nan nan nan nan nan nan nan nan nan nan nan nan nan nan nan nan nan nan nan nan nan nan nan nan nan nan nan nan nan 64 63 62 62 60 59 57 57 58 59 59 58 56 58 61 60 61 61 61 60 60 59 58 57 57 57 58 58 57 56 56 55 54
Wind_Direction
237 226 215 227 227 221 212 211 238 243 282 281 282 274 265 249 251 225 236 241 253 269 265 256 269 269 275 277 288 277 272 271 260 257 250 227 195 179 185 166 155 161 156 157 145 168 179 187 185 197 196 204 214 206 202 222 245 247 230 232 230 236 238 237 207 180 197 203 204 204 203 217 226 238 240 253 253 268 272 260 263 277 298 297 301
227 233 244 238 229 230 236 210 192 237 267 289 294 290 289 270 254 243 238 236 240 268 272 278 258 265 265 272 264 265 275 264 279 254 253 243 213 181 164 215 157 162 178 177 160 161 192 210 193 190 210 201 204 203 215 201 228 255 272 258 261 255 271 266 251 229 206 215 214 222 217 223 235 256 256 253 261 271 273 275 277 283 279 294 291
245 239 233 236 238 230 220 234 216 191 263 274 301 309 299 290 266 261 250 246 239 239 264 278 267 255 249 249 259 253 266 279 261 251 254 253 239 181 182 247 202 182 173 178 172 184 179 190 201 208 177 200 214 199 190 199 205 207 221 239 240 237 253 262 260 252 236 231 232 225 235 237 240 243 250 261 272 278 283 287 285 275 275 288 295
231 233 232 230 229 230 221 220 228 210 236 259 284 297 291 292 279 273 269 257 261 246 244 264 265 264 255 241 248 244 250 269 268 257 245 251 245 220 181 203 246 224 188 185 179 179 184 197 192 193 199 193 215 214 209 213 211 211 216 233 250 242 234 243 255 258 256 244 248 240 241 242 251 251 256 261 262 270 275 280 287 291 287 282 285
216 211 218 221 224 227 234 226 213 232 227 229 266 277 282 286 278 281 275 262 260 263 252 244 253 266 268 251 243 247 239 247 262 268 253 241 236 229 215 196 197 214 213 205 192 200 203 198 205 204 201 203 207 213 217 214 213 203 210 225 237 243 246 254 255 262 259 259 254 258 250 252 255 259 266 267 269 270 272 273 277 280 289 294 288
223 212 211 210 206 213 214 237 238 229 249 242 230 259 268 269 276 275 274 263 248 261 267 256 245 254 257 257 251 247 243 241 252 259 261 255 244 226 225 223 208 201 202 202 203 201 196 205 199 201 210 222 218 223 224 218 228 232 228 221 221 229 242 250 259 255 250 249 249 241 251 250 256 269 271 272 268 271 273 276 277 283 285 289 295
216 213 216 219 209 207 216 207 219 234 250 252 245 243 256 267 266 272 268 260 262 253 267 266 257 248 250 253 257 254 251 248 248 260 253 239 245 247 229 233 228 219 212 201 194 202 203 201 211 212 207 210 211 219 223 230 229 223 223 231 237 239 233 231 237 245 254 259 263 268 260 264 275 266 271 273 277 287 289 280 282 291 300 301 301
219 217 212 224 222 200 210 208 211 209 222 238 238 240 236 231 240 248 256 262 259 257 250 268 268 259 251 252 248 249 257 256 251 254 261 249 233 238 241 232 234 234 225 228 206 195 215 215 195 227 237 220 221 217 215 217 237 237 242 242 240 240 234 232 236 244 247 252 265 259 262 251 239 246 246 253 263 276 303 302 309 303 304 303 310
212 216 220 226 220 215 214 223 223 223 210 215 220 227 236 229 224 226 243 254 257 252 248 247 267 271 263 256 250 249 257 265 258 259 257 262 247 228 238 238 229 229 238 233 236 220 206 206 218 204 248 322 342 309 270 248 226 232 238 240 241 247 249 252 252 243 241 245 239 247 246 242 255 252 250 270 291 298 286 292 296 297 295 299 309
215 223 223 224 229 224 218 219 220 220 223 218 214 211 219 228 233 227 212 238 251 252 246 240 241 267 270 265 258 255 251 251 267 294 280 263 261 251 239 238 234 231 232 236 233 246 237 207 192 150 148 345 338 336 350 343 279 256 239 247 254 254 258 257 255 257 258 264 275 273 276 282 282 290 299 316 320 300 292 287 294 295 295 306 301
243 232 229 226 231 229 228 225 226 229 236 244 239 227 222 222 228 235 232 219 233 249 261 251 240 244 269 271 265 260 253 251 283 295 299 302 274 263 246 236 240 236 232 234 235 230 231 237 229 196 190 210 267 328 330 336 329 320 302 283 277 269 267 273 280 284 286 293 290 291 297 300 312 315 315 302 322 316 288 268 276 278 288 293 299
246 239 233 229 233 237 237 234 232 231 235 230 226 227 227 230 234 238 228 219 229 224 222 230 242 247 247 263 275 264 255 263 286 295 298 302 295 270 261 247 234 237 236 233 235 237 232 222 218 210 223 233 243 269 296 319 321 325 338 343 349 327 303 288 284 284 295 299 300 301 295 304 309 306 307 300 287 275 275 272 283 285 291 300 307
245 243 239 236 235 236 240 239 237 242 253 251 241 242 240 238 242 246 257 251 234 231 233 230 223 220 228 242 250 264 269 283 nan nan nan 299 302 293 262 255 253 234 235 242 240 238 242 243 230 214 202 214 252 260 272 284 310 335 335 342 346 343 343 348 330 317 295 294 302 302 308 311 317 319 315 312 299 296 286 287 288 294 301 310 318
249 247 245 244 244 240 236 241 241 246 249 252 241 234 236 235 231 232 238 243 242 239 233 233 237 231 227 222 227 237 244 261 nan nan nan 299 299 289 266 264 252 242 240 241 246 249 247 244 243 235 231 219 221 233 248 263 264 266 267 267 276 297 323 340 nan nan 332 323 318 320 326 319 331 322 313 297 293 297 298 300 296 296 298 310 309
253 250 248 246 247 246 243 243 248 250 250 246 242 236 240 240 233 234 241 243 242 237 232 228 229 224 221 224 221 218 235 221 258 288 nan nan 298 287 267 264 259 255 245 239 240 241 248 257 257 254 246 244 244 236 234 245 258 265 267 270 274 276 283 294 299 300 304 310 325 336 334 326 323 321 310 306 306 305 302 300 301 300 300 298 301
256 254 252 251 249 249 248 247 246 252 254 251 250 251 252 245 229 226 235 242 246 247 242 239 236 233 231 229 227 227 229 240 246 275 285 285 nan nan 269 265 264 262 261 256 247 242 241 242 244 247 251 253 258 264 254 248 247 253 262 267 269 275 284 297 313 312 311 311 316 323 324 334 334 320 314 311 306 302 301 304 301 299 301 305 311
252 255 257 257 255 253 251 246 247 249 252 254 250 246 252 254 244 232 230 239 245 250 252 254 251 244 242 246 241 229 231 243 252 271 279 286 270 261 263 258 256 256 255 258 255 251 247 244 243 239 242 245 253 265 267 263 254 255 256 257 260 262 271 279 307 324 325 328 331 333 340 340 340 338 332 328 311 298 287 286 289 288 293 300 303
250 252 255 257 260 258 256 252 248 248 249 250 258 257 253 255 252 244 234 230 233 240 247 250 250 247 241 238 231 221 222 231 244 262 279 281 279 271 267 262 254 250 249 248 249 248 249 251 242 240 240 244 249 260 267 268 262 264 264 264 264 269 271 272 269 286 317 327 331 335 335 335 334 330 322 316 312 295 295 300 300 293 295 296 293
250 251 251 252 nan nan 257 257 252 248 246 245 247 251 253 248 245 246 242 234 228 229 231 231 232 236 234 232 232 225 219 220 227 245 266 274 273 261 263 263 259 257 252 248 248 247 247 250 255 253 251 249 255 261 270 272 268 270 271 272 276 279 277 270 275 276 278 287 293 294 296 305 306 306 309 323 316 303 298 300 295 297 301 301 299
nan nan nan nan nan nan nan 259 260 256 254 249 246 246 246 245 242 242 242 239 233 230 226 224 222 227 228 227 227 227 225 226 230 238 255 263 273 263 261 260 261 261 256 251 249 252 252 253 258 269 272 269 267 269 273 281 276 273 274 280 283 285 274 274 281 281 281 283 286 297 304 302 301 301 301 300 301 301 305 304 302 301 302 302 301
nan nan nan nan nan nan nan nan nan nan nan 256 255 253 250 247 245 249 247 243 239 234 228 226 224 223 222 223 225 227 228 224 223 220 223 235 248 260 245 252 256 256 256 254 253 250 250 254 256 269 284 285 283 283 283 286 285 278 281 284 287 277 271 276 278 283 278 279 281 281 288 292 293 295 297 298 301 301 306 311 308 308 308 308 304
nan nan nan nan nan nan nan nan nan nan nan nan 256 256 257 258 256 251 247 249 246 240 235 233 230 228 228 224 224 228 237 237 239 233 243 256 260 255 256 249 246 253 253 254 253 251 252 253 255 262 279 287 289 290 295 293 296 284 288 296 292 283 280 279 278 278 279 279 276 277 278 281 289 294 296 298 300 301 304 307 311 314 313 312 310
nan nan nan nan nan nan nan nan nan nan nan nan nan nan 255 255 254 252 252 253 250 245 241 237 234 236 236 234 232 243 249 251 266 270 279 283 284 285 287 272 264 260 254 253 254 255 255 253 254 262 275 283 289 294 295 301 292 288 301 296 295 297 289 282 282 281 280 279 279 280 281 281 282 287 292 295 297 297 301 303 306 309 310 311 312
nan nan nan nan nan nan nan nan nan nan nan nan nan nan nan nan 254 253 253 254 257 256 249 243 240 238 236 239 243 257 258 257 261 266 253 252 254 265 273 276 262 261 262 254 253 253 252 253 253 248 250 271 284 291 295 297 292 301 302 304 302 299 288 286 284 284 281 280 282 283 286 288 289 289 286 284 286 289 293 293 295 301 304 305 311
nan nan nan nan nan nan nan nan nan nan nan nan nan nan nan nan nan 254 254 253 256 259 256 250 244 240 239 241 245 257 256 255 253 252 254 250 251 253 254 257 264 249 246 254 251 251 244 244 241 245 253 260 267 267 269 280 294 300 304 307 304 287 289 288 287 283 284 286 286 287 289 291 291 289 285 286 284 281 282 283 284 282 287 298 298
nan nan nan nan nan nan nan nan nan nan nan nan nan nan nan nan nan 255 256 256 258 258 256 254 252 249 245 245 245 249 252 254 253 253 255 256 253 253 256 257 254 259 265 256 251 233 228 232 234 239 247 256 260 264 270 275 284 292 296 293 282 283 288 287 286 287 289 289 289 291 290 286 288 288 288 287 287 290 286 286 286 289 289 286 287
nan nan nan nan nan nan nan nan nan nan nan nan nan nan nan nan nan nan nan 257 255 256 256 255 253 250 247 246 245 246 248 250 252 254 257 256 255 257 256 255 257 253 247 247 242 241 233 238 245 242 243 249 257 260 265 273 277 277 277 277 280 282 285 286 288 290 291 289 288 287 286 285 284 285 288 290 294 294 292 292 292 292 290 291 293
nan nan nan nan nan nan nan nan nan nan nan nan nan nan nan nan nan nan nan nan 255 253 251 249 250 250 248 248 250 253 252 251 252 254 258 261 258 258 258 260 260 259 255 254 253 247 247 245 244 246 247 248 255 258 260 265 271 274 275 278 278 281 285 289 289 288 287 286 284 283 281 282 284 285 283 287 290 290 291 294 298 298 296 294 295
nan nan nan nan nan nan nan nan nan nan nan nan nan nan nan nan nan nan nan nan nan nan nan nan nan nan nan nan 248 250 252 250 256 264 265 262 257 253 248 247 250 251 253 252 251 252 251 251 253 253 249 249 251 250 250 254 263 270 274 275 277 282 286 286 290 290 287 282 284 284 283 282 282 281 282 282 284 283 284 291 295 298 297 299 306
nan nan nan nan nan nan nan nan nan nan nan nan nan nan nan nan nan nan nan nan nan nan nan nan nan nan nan nan nan nan nan nan 253 250 251 254 259 264 263 257 256 261 260 253 257 257 259 255 257 256 254 257 259 258 254 256 258 261 264 271 275 278 284 287 288 284 281 284 285 284 283 281 279 279 278 280 276 278 282 288 288 291 295 300 306
nan nan nan nan nan nan nan nan nan nan nan nan nan nan nan nan nan nan nan nan nan nan nan nan nan nan nan nan nan nan nan nan nan nan 257 256 257 266 271 272 272 279 276 260 258 264 265 266 265 265 263 262 261 257 253 252 253 254 256 262 272 278 278 276 277 275 276 280 284 286 285 284 281 277 279 282 283 281 281 284 286 289 294 299 304
nan nan nan nan nan nan nan nan nan nan nan nan nan nan nan nan nan nan nan nan nan nan nan nan nan nan nan nan nan nan nan nan nan nan nan nan 263 264 270 279 284 285 271 268 263 264 265 262 260 262 263 261 258 248 241 236 239 244 248 251 254 260 267 267 266 270 276 280 283 284 285 285 281 279 281 281 277 274 275 281 288 293 296 298 304
nan nan nan nan nan nan nan nan nan nan nan nan nan nan nan nan nan nan nan nan nan nan nan nan nan nan nan nan nan nan nan nan nan nan nan nan nan nan nan 271 276 279 264 267 273 270 271 267 260 258 262 261 248 237 232 233 233 235 238 240 242 244 246 252 265 271 275 279 280 280 279 279 279 275 273 272 271 272 281 289 294 296 297 299 300
nan nan nan nan nan nan nan nan nan nan nan nan nan nan nan nan nan nan nan nan nan nan nan nan nan nan nan nan nan nan nan nan nan nan nan nan nan nan nan nan 264 266 nan 274 272 271 271 272 265 258 258 258 249 238 237 240 242 241 240 241 241 243 248 251 256 265 269 272 273 275 275 273 271 268 263 259 264 282 297 297 290 285 282 284 284
nan nan nan nan nan nan nan nan nan nan nan nan nan nan nan nan nan nan nan nan nan nan nan 253 nan nan nan nan nan nan nan nan nan nan nan nan nan nan nan nan nan nan nan nan nan 268 268 271 270 262 257 254 252 246 242 246 247 247 248 249 248 249 252 256 260 261 262 265 269 269 270 266 254 250 264 282 289 279 270 267 268 270 273 276 277
nan nan nan nan nan nan nan nan nan nan nan nan nan nan nan nan nan nan nan nan nan nan nan nan nan nan nan nan nan nan nan nan nan nan nan nan nan nan nan nan nan nan nan nan nan 273 270 267 267 266 260 252 248 248 246 244 247 248 247 249 254 258 260 262 263 265 265 264 265 264 260 259 272 280 277 272 271 271 270 270 272 274 276 278 280
nan nan nan nan nan nan nan nan nan nan nan nan nan nan nan nan nan nan nan nan nan nan nan nan nan nan nan nan nan nan nan nan nan nan nan 263 269 268 262 263 262 262 263 266 268 269 nan 269 269 267 266 261 254 250 247 247 250 253 254 255 257 263 265 267 269 268 265 255 252 258 266 272 277 283 286 285 282 279 278 279 281 283 284 286 283
nan nan nan nan nan nan nan nan nan nan nan nan nan nan nan nan nan nan nan nan nan nan nan nan nan nan nan nan nan nan nan nan nan 251 257 260 262 262 262 261 261 261 263 264 266 265 265 265 266 266 267 267 262 256 251 249 251 254 256 260 263 266 274 274 273 264 257 261 268 273 279 286 293 299 297 291 288 285 284 284 283 282 284 288 288
nan nan nan nan nan nan nan nan nan nan nan nan nan nan nan nan nan nan nan nan nan nan nan nan nan nan nan nan 254 253 252 252 255 255 258 260 260 261 261 259 258 260 261 263 263 263 262 261 261 262 261 262 262 261 259 255 253 253 255 257 260 264 269 272 266 263 271 278 280 280 280 288 295 296 292 289 288 286 285 284 283 284 286 287 289
nan nan nan nan nan nan nan nan nan nan nan nan nan nan nan nan nan nan nan nan nan nan nan nan nan nan nan nan nan 253 253 251 250 249 249 251 256 261 261 259 259 260 260 261 263 264 263 261 259 258 258 258 259 259 259 259 258 260 262 263 262 263 266 267 271 277 273 272 276 278 286 293 295 292 291 293 294 291 288 286 285 286 288 286 285
nan nan nan nan nan nan nan nan nan nan nan nan nan nan nan nan nan nan nan nan nan nan nan nan nan nan nan nan nan nan nan nan nan nan nan nan nan 250 252 255 258 257 257 257 258 259 259 258 257 255 253 251 252 252 253 254 255 256 258 259 260 259 258 261 265 270 273 276 281 283 288 290 287 286 289 293 296 295 289 284 282 284 287 288 286
nan nan nan nan nan nan nan nan nan nan nan nan nan nan nan nan nan nan nan nan nan nan nan nan nan nan nan nan nan nan nan nan nan nan nan nan nan nan nan 251 248 247 248 249 250 252 253 254 252 251 250 249 247 247 248 250 251 251 251 251 252 256 260 267 270 272 275 279 283 287 288 286 286 285 287 287 291 294 291 286 283 284 289 293 292
nan nan nan nan nan nan nan nan nan nan nan nan nan nan nan nan nan nan nan nan nan nan nan nan nan nan nan nan nan nan nan nan nan nan nan nan nan nan nan nan nan nan nan 248 248 248 249 250 251 252 251 250 249 248 247 248 249 250 251 252 252 254 255 259 265 271 276 281 285 288 289 288 287 286 286 288 290 289 287 285 283 285 288 285 282
nan nan nan nan nan nan nan nan nan nan nan nan nan nan nan nan nan nan nan nan nan nan nan nan nan nan nan nan nan nan nan nan nan nan nan nan nan nan nan nan nan nan nan nan 248 248 247 247 249 251 252 253 253 251 251 250 250 251 252 254 255 255 256 258 260 261 262 265 270 276 281 281 282 282 283 283 283 284 283 284 284 283 280 280 285
nan nan nan nan nan nan nan nan nan nan nan nan nan nan nan nan nan nan nan nan nan nan nan nan nan nan nan nan nan nan nan nan nan nan nan nan nan nan nan nan nan nan nan nan nan 249 247 246 246 248 249 252 254 254 254 254 254 254 255 257 258 259 261 261 262 263 264 266 268 268 268 269 273 276 275 276 279 279 275 270 267 266 269 275 277
nan nan nan nan nan nan nan nan nan nan nan nan nan nan nan nan nan nan nan nan nan nan nan nan nan nan nan nan nan nan nan nan nan nan nan nan nan nan nan nan nan nan nan nan nan nan nan 247 246 246 246 248 251 253 255 256 257 257 258 259 260 261 262 262 262 263 265 268 270 271 271 272 272 273 272 270 266 265 267 265 264 269 277 280 281
nan nan nan nan nan nan nan nan nan nan nan nan nan nan nan nan nan nan 249 nan nan nan nan nan nan nan nan nan nan nan nan nan nan nan nan nan nan nan nan nan nan nan nan nan nan nan nan nan nan nan 245 246 247 249 252 255 256 258 259 260 260 261 262 263 262 262 264 266 268 271 273 274 275 275 275 278 280 280 282 283 282 276 274 276 279
nan nan nan nan nan nan nan nan nan nan nan nan nan nan nan nan nan nan nan nan nan nan nan nan nan nan nan nan nan nan nan nan nan nan nan nan nan nan nan nan nan nan nan nan nan nan nan nan nan nan nan nan 246 248 250 252 255 257 259 259 259 260 259 261 266 266 268 268 270 272 272 273 272 269 269 272 273 274 277 278 277 277 278 280 282
nan nan nan nan nan nan nan nan nan nan nan nan nan nan nan nan nan nan 245 nan 245 246 nan nan nan nan nan nan nan nan nan nan nan nan nan nan nan nan nan nan nan nan nan nan nan nan nan nan nan nan nan nan nan 249 250 252 253 255 255 257 256 253 255 259 266 268 268 269 271 271 272 272 271 271 272 273 274 276 278 279 279 279 280 280 281
nan nan nan nan nan nan nan nan nan nan nan nan nan nan nan nan nan nan 243 245 245 nan nan nan nan nan nan nan nan nan nan nan nan nan nan nan nan nan nan nan nan nan nan nan nan nan nan nan nan nan nan nan 251 251 252 253 253 253 255 255 252 253 253 254 255 256 265 266 267 268 269 270 271 270 270 270 272 273 274 274 275 276 276 276 276
nan nan nan nan nan nan nan nan nan nan nan nan nan nan nan nan nan nan nan nan nan nan nan nan nan nan nan nan nan nan nan nan nan nan nan nan nan nan nan nan nan nan nan nan nan nan nan nan nan nan nan nan 252 252 252 253 253 253 252 251 251 252 253 255 258 258 258 262 264 265 265 266 267 268 267 268 268 269 269 269 269 270 271 272 272